Theta_e
315 314 316 318 318 319 321 321 322 321 322 321 318 320 317 316 316 316 317 317 317 318 318 319 326 330 325 324 327 325 326 332 331 326 327 328 329 331 331 331 330 329 329 328 327 326 325 328 331 332 331 328 324 321 320 320 318 314 311 311 310 309 310 315 323 328 328 329 331 331 329 321 313 313 317 322 323 321 324 328 329 328 327 324 320 319 317 316 314 311 311 311 311 311 311 310 310
314 315 317 318 319 320 321 321 326 326 323 318 318 320 316 314 316 319 320 318 320 318 317 321 328 328 323 323 323 323 328 328 325 326 329 329 330 331 331 331 330 330 328 325 324 325 327 330 331 331 330 327 324 322 321 320 319 315 313 312 310 309 310 316 324 326 326 329 331 332 329 318 312 315 318 323 325 325 326 328 329 328 327 324 319 321 324 322 317 314 311 311 312 311 311 310 310
314 316 317 319 320 320 323 322 325 327 323 320 321 320 315 316 319 321 319 317 319 318 319 323 326 325 321 323 322 321 326 326 327 330 330 331 331 331 331 331 331 330 327 323 325 327 330 332 331 331 330 328 325 323 322 321 320 316 314 312 311 310 310 315 323 325 326 328 329 330 329 321 317 318 320 322 323 323 324 325 326 328 327 326 322 318 320 318 314 313 311 311 311 311 311 310 310
315 318 318 319 321 322 331 330 327 326 322 321 321 320 319 321 321 317 316 318 320 320 320 322 324 323 322 324 324 322 324 326 328 330 330 331 330 330 330 330 331 330 327 323 326 330 332 332 331 331 330 328 327 324 323 323 320 318 315 313 313 312 310 314 319 322 323 326 328 329 328 323 317 316 318 319 319 320 323 321 321 324 325 324 320 313 312 311 310 310 310 310 310 310 310 310 311
316 318 318 320 323 323 328 326 323 324 320 321 321 319 322 324 319 313 316 322 319 319 319 322 325 324 324 324 323 321 323 326 328 330 330 330 329 329 329 330 331 330 328 324 327 331 332 332 330 331 330 329 328 325 324 324 322 319 317 314 313 313 311 313 317 321 324 327 328 328 326 322 316 316 316 315 317 320 321 319 319 322 324 322 319 314 310 308 310 310 311 313 311 310 311 311 312
318 319 318 320 320 319 322 319 319 323 320 322 321 320 321 318 315 315 318 321 319 318 318 321 324 324 325 325 323 323 325 327 328 329 329 329 329 329 329 330 330 330 329 327 329 332 333 333 331 332 331 330 329 327 325 325 323 320 318 315 314 314 312 312 316 323 328 329 328 325 322 319 316 317 316 314 316 319 320 319 321 324 324 322 318 317 313 309 309 311 315 316 312 310 312 312 313
318 319 318 320 319 318 326 324 324 325 316 314 317 319 317 312 314 318 319 321 320 317 317 321 322 322 324 325 327 328 329 329 327 330 330 329 329 329 329 329 330 330 330 331 331 332 334 333 332 332 332 331 329 327 326 325 324 321 319 317 314 314 314 312 314 319 324 326 324 321 319 318 317 316 314 315 316 319 320 318 319 321 322 321 316 314 313 310 311 312 313 314 312 312 312 313 314
318 320 319 324 324 322 329 325 324 323 313 309 311 315 314 312 316 319 317 319 319 316 318 321 321 322 322 323 327 329 330 330 329 330 330 329 329 329 328 329 330 330 331 332 331 332 333 333 333 332 331 331 329 327 325 324 324 322 320 317 315 314 315 314 312 314 318 320 320 321 321 317 317 316 313 315 318 318 318 317 319 319 318 317 313 310 312 314 315 314 314 314 314 314 314 314 315
317 320 319 324 326 325 327 320 318 317 315 313 311 313 313 313 318 319 316 315 315 315 319 321 318 318 320 323 326 328 330 331 330 331 331 330 329 329 328 328 329 329 330 331 331 331 331 332 333 332 331 329 328 327 325 324 324 323 321 318 316 314 315 316 313 313 314 316 321 325 323 317 316 317 312 312 317 319 316 314 316 317 314 311 309 311 315 317 317 316 316 315 315 314 314 315 316
318 320 317 322 327 322 320 317 317 317 316 315 312 314 314 314 317 318 316 314 314 316 319 320 318 317 320 324 325 326 330 331 330 331 331 330 329 329 328 328 329 329 329 330 331 331 331 331 332 332 331 329 328 328 325 324 324 324 322 319 316 314 315 316 315 313 312 313 317 320 320 317 314 314 312 310 313 315 313 310 311 311 310 309 311 315 317 318 318 317 316 315 315 315 315 315 316
319 319 318 324 328 320 319 320 320 321 319 314 312 314 315 315 316 315 314 315 315 317 320 320 318 318 321 324 324 324 328 331 330 330 330 330 330 329 328 328 329 329 329 330 330 330 330 330 331 332 330 329 328 327 324 324 324 324 323 320 318 316 314 315 316 315 313 312 311 311 314 314 311 311 311 308 310 312 310 308 308 309 310 312 315 317 318 318 318 317 317 317 316 315 315 315 317
318 320 328 331 326 320 322 322 320 326 326 319 316 315 315 315 316 315 314 315 316 317 319 320 318 319 321 322 322 323 327 330 331 331 330 330 330 329 329 328 329 330 329 330 329 330 329 329 331 331 331 329 327 326 325 324 324 324 324 322 319 318 316 315 315 316 316 313 311 310 309 308 308 308 308 307 307 308 308 307 307 308 311 314 316 318 319 318 318 319 318 318 317 316 316 316 317
318 321 333 327 320 320 320 320 320 325 327 320 315 314 316 315 316 316 314 315 315 317 318 319 318 319 321 320 321 323 326 330 331 332 331 330 330 330 330 329 329 330 330 330 329 329 329 329 329 330 330 329 327 326 326 324 324 324 324 323 321 320 318 316 315 316 317 316 314 312 310 308 307 306 307 307 307 307 307 307 307 309 313 315 317 318 319 319 319 319 319 319 318 317 316 316 317
318 320 328 322 314 319 321 320 320 322 323 320 315 314 316 315 316 316 315 316 315 317 318 318 318 318 318 318 319 322 324 327 330 332 332 331 330 330 330 329 330 329 330 330 329 329 328 328 328 329 329 328 327 326 326 325 324 324 325 325 323 321 320 319 317 316 317 317 316 315 313 310 307 307 307 306 306 307 307 308 308 309 313 316 317 318 319 319 319 319 320 319 318 317 316 316 316
318 316 325 325 316 317 318 318 322 325 322 319 315 314 316 315 315 315 315 317 317 316 316 317 318 318 317 317 318 319 321 324 328 331 332 333 332 331 331 330 330 330 329 329 329 329 328 327 327 327 327 327 327 325 325 325 325 324 324 326 325 323 321 321 320 318 317 317 318 318 315 313 310 309 308 307 307 308 309 310 311 312 314 316 317 319 320 320 320 320 320 320 319 318 317 316 315
320 317 325 328 318 317 316 315 319 324 321 314 312 314 316 315 314 314 314 315 316 315 316 317 318 318 316 317 317 316 319 321 326 330 332 334 333 332 332 330 330 330 329 329 329 329 328 327 326 326 325 325 325 324 325 325 324 324 324 325 326 325 323 322 322 321 319 317 317 318 318 316 314 312 311 311 310 311 312 312 314 315 316 316 318 319 319 320 320 320 320 320 319 318 317 316 315
318 322 329 325 319 320 317 316 318 322 322 312 310 314 316 315 313 314 314 314 315 315 316 317 317 317 317 317 317 315 316 319 324 328 331 334 334 333 332 331 330 330 330 329 330 331 329 328 327 326 325 324 323 323 324 324 324 324 324 325 326 326 325 324 323 322 321 320 318 318 318 318 317 316 314 314 314 314 315 315 315 316 317 317 318 318 319 320 320 320 320 320 320 319 318 317 316
320 331 330 321 322 323 320 318 315 318 320 312 310 314 316 316 313 313 314 314 315 315 316 317 317 318 317 317 318 316 315 318 322 324 327 331 332 332 332 330 330 330 330 330 331 331 330 328 328 327 326 325 323 323 323 323 324 324 324 324 326 326 326 325 324 323 323 322 321 319 318 318 319 318 317 317 317 317 317 317 317 317 318 317 317 318 319 319 320 320 320 320 320 320 318 318 317
321 328 325 326 329 320 314 314 311 313 315 312 311 313 314 315 313 314 315 314 314 315 316 316 316 317 317 318 318 317 314 315 320 320 322 326 328 328 329 329 329 329 329 329 330 330 330 329 329 328 328 327 325 323 322 322 323 324 324 324 325 326 326 326 325 325 324 324 323 322 320 319 319 319 319 318 318 319 319 319 318 318 319 319 318 318 319 319 319 319 320 320 320 320 319 318 318
317 322 326 329 324 314 311 312 311 313 313 311 311 312 313 314 313 314 314 314 313 315 316 315 316 316 317 317 318 318 315 314 317 318 318 320 322 323 324 325 325 327 327 327 328 329 330 330 330 330 329 329 327 324 323 322 322 323 324 325 325 326 326 326 326 326 325 325 324 324 323 321 319 319 319 319 319 320 320 320 320 320 320 320 319 319 319 319 319 319 319 319 320 320 320 319 318
315 321 328 322 312 313 313 311 312 312 312 312 312 312 313 313 313 314 314 315 315 315 315 315 315 315 316 316 317 318 316 314 315 316 317 318 319 320 320 321 322 324 325 326 327 328 328 329 330 330 331 330 329 326 324 323 322 323 324 325 325 325 326 327 327 326 326 326 325 325 325 324 322 320 319 320 320 320 320 320 321 320 320 320 319 319 319 319 319 319 319 319 319 320 320 320 319
316 315 317 313 309 314 313 310 312 312 313 312 311 313 314 313 313 313 314 317 318 315 315 316 315 315 316 316 316 318 316 314 314 315 315 315 317 318 319 320 321 322 324 325 326 326 327 328 329 329 330 330 330 328 326 325 323 324 324 325 325 325 326 327 327 327 327 326 326 326 325 325 325 323 321 320 319 320 320 320 320 320 320 320 320 319 319 319 319 319 319 319 319 320 320 320 320
319 314 309 311 311 313 312 311 313 312 313 312 311 313 313 312 313 313 313 315 316 315 315 315 315 315 315 315 316 316 316 315 314 314 314 314 314 315 316 317 319 320 321 322 323 325 325 325 326 327 328 329 330 330 329 328 326 325 325 325 326 326 326 327 327 327 328 327 327 326 326 326 326 325 324 323 321 320 320 320 320 320 320 320 320 320 320 319 319 319 319 319 319 320 320 320 320
320 317 309 311 311 311 312 312 312 311 313 313 312 313 312 313 313 312 313 315 315 315 315 314 315 315 315 315 315 315 316 315 315 314 314 314 314 314 315 316 317 318 319 320 321 322 323 323 324 324 326 327 328 329 330 329 329 328 327 327 327 327 327 327 327 328 328 328 327 327 327 326 326 326 325 325 324 321 320 320 321 321 320 320 320 320 320 319 319 319 319 319 319 319 319 320 320
318 317 310 310 311 310 311 311 312 311 311 312 312 312 311 312 312 311 313 315 315 315 315 314 314 315 315 315 315 315 315 315 315 315 314 314 315 315 316 316 316 317 317 318 319 320 320 320 322 322 323 324 326 327 329 330 330 330 329 329 329 328 328 328 328 328 328 328 328 328 327 327 326 326 326 326 326 324 323 321 320 321 320 320 320 320 320 320 319 319 319 319 319 319 319 319 320
314 313 310 311 310 310 311 311 311 311 311 312 312 312 311 311 311 312 313 314 314 314 314 314 314 314 315 315 315 315 315 315 315 314 315 314 315 315 316 316 316 316 316 316 317 318 318 318 319 320 321 322 323 325 326 328 329 330 330 330 330 330 329 329 329 328 329 329 329 329 328 328 327 326 326 326 326 326 325 324 322 321 321 321 321 321 320 320 320 319 319 318 318 318 318 319 319
312 311 311 311 311 311 311 311 311 311 311 312 313 312 311 311 311 314 314 314 314 314 314 314 314 314 314 315 315 315 315 315 315 314 315 314 315 314 315 315 315 315 315 316 316 316 317 317 317 318 320 320 321 322 323 325 327 328 329 330 330 330 330 330 329 329 329 330 330 330 329 328 328 327 326 326 326 327 327 326 325 324 323 322 322 321 320 320 320 319 319 318 318 317 317 318 319
312 312 313 310 310 311 311 312 311 312 312 311 313 312 310 311 312 315 313 314 315 314 314 314 314 314 314 315 315 315 315 315 315 315 314 314 314 314 314 315 314 315 315 315 315 315 316 316 316 317 318 319 320 320 321 322 324 326 328 330 330 329 330 330 330 330 330 330 330 330 330 329 329 328 328 327 326 327 328 328 327 326 325 324 323 322 321 320 320 320 320 319 318 317 317 317 318
311 313 315 313 312 313 310 310 311 312 313 311 312 312 313 314 314 315 313 313 314 314 314 314 314 314 313 315 315 315 315 315 315 315 315 315 314 314 314 314 314 315 315 315 315 315 315 315 315 315 316 317 318 319 319 320 321 323 325 328 329 329 329 330 330 330 330 330 331 331 331 330 330 329 329 328 327 326 327 328 328 327 327 325 325 324 323 322 321 321 322 321 320 319 318 316 317
312 311 315 316 315 314 309 309 311 311 312 311 311 313 318 317 311 312 313 313 314 314 314 314 314 314 314 314 315 315 314 315 315 315 315 315 315 314 314 315 315 315 315 315 315 315 315 315 315 315 315 315 316 317 317 318 318 319 321 324 326 327 327 328 328 329 329 330 330 331 331 331 331 330 330 329 328 327 326 327 328 328 327 326 326 325 324 324 323 322 323 322 322 322 321 318 316
314 309 314 318 315 316 311 307 311 312 312 311 311 312 318 317 310 310 312 312 313 314 314 314 314 314 314 314 314 315 315 315 315 315 315 315 315 315 315 315 314 315 315 315 315 315 315 315 315 315 315 315 315 316 315 316 317 317 318 320 322 325 326 326 326 327 328 328 329 330 331 331 331 330 330 330 330 329 327 327 328 328 328 326 326 325 324 324 324 324 324 323 323 322 322 321 319
318 311 316 316 312 317 314 307 308 313 312 310 311 313 316 315 311 311 312 312 312 313 314 314 314 314 314 314 314 314 315 315 315 315 315 315 315 315 315 315 315 315 315 315 315 315 315 315 315 315 315 315 315 315 315 315 315 315 316 316 317 320 323 325 325 325 326 326 326 327 328 329 330 331 330 330 330 330 329 328 328 328 328 328 327 326 325 325 325 325 324 324 323 322 322 322 321
320 316 319 317 313 315 314 309 306 309 312 310 310 313 317 316 311 311 312 312 312 312 313 313 313 314 313 314 314 314 315 315 315 315 315 315 315 315 315 315 315 315 315 315 315 314 315 314 314 315 315 314 315 315 315 315 314 315 315 315 315 315 319 321 320 322 324 324 324 327 329 327 327 328 328 329 329 329 329 328 327 326 326 327 327 327 326 326 325 324 323 323 324 324 323 322 322
317 318 320 316 316 314 314 314 308 306 311 313 312 312 317 316 310 311 312 311 312 312 313 314 314 314 314 314 314 314 315 314 315 315 315 315 315 315 315 315 315 315 315 315 315 314 314 314 314 314 314 314 314 314 314 315 315 316 316 316 317 321 324 321 320 325 327 328 328 328 330 328 327 329 330 330 327 327 328 327 326 325 325 326 325 325 326 326 324 323 324 324 325 324 323 323 322
316 318 317 314 315 313 314 317 311 308 313 314 314 313 316 316 311 311 312 311 312 313 314 314 315 315 314 314 314 314 315 315 315 315 315 315 315 315 315 315 315 315 315 315 315 315 314 315 314 314 314 314 314 314 314 314 314 315 316 317 319 324 326 321 321 327 331 334 330 324 323 324 326 330 333 331 326 325 326 326 326 325 326 327 323 323 325 326 326 325 326 326 325 325 324 323 321
318 318 319 320 321 316 314 316 309 307 314 315 316 316 316 318 314 312 313 312 312 313 314 314 315 316 315 315 315 315 315 315 315 315 315 315 315 315 315 315 315 315 315 315 315 315 315 315 315 314 314 314 314 314 314 314 314 314 314 315 317 320 321 318 318 323 328 330 326 322 323 322 324 328 329 328 325 327 330 328 328 326 325 325 322 323 325 326 326 325 325 325 325 325 323 322 322
317 318 320 321 320 317 313 314 308 305 314 317 317 319 317 317 316 311 311 311 309 311 313 314 315 315 315 315 315 315 316 316 316 315 316 315 315 315 315 315 315 315 315 315 315 315 315 315 315 315 315 314 314 314 314 314 314 314 314 315 315 315 315 316 315 318 321 323 324 328 330 327 329 330 329 329 326 326 330 329 327 328 327 324 322 324 326 326 326 325 325 325 325 324 323 322 322
316 316 318 317 317 318 312 312 310 305 311 316 315 318 317 317 317 311 309 309 309 311 313 314 315 315 315 315 315 315 316 315 315 315 315 314 314 314 314 314 314 314 314 315 316 315 315 315 315 315 315 315 315 315 314 314 314 315 315 314 315 315 315 316 316 317 318 320 326 332 333 329 327 327 329 333 330 325 326 327 328 330 329 325 324 326 326 326 326 325 324 325 325 324 323 321 321
320 316 316 317 316 317 312 311 311 307 311 317 316 317 317 317 316 311 307 308 311 312 312 313 314 314 315 315 315 315 315 315 315 315 314 314 314 313 313 314 313 313 314 314 315 315 316 315 316 315 315 315 315 315 315 315 315 315 315 315 315 316 316 317 317 319 320 321 324 327 328 325 322 325 330 332 332 328 328 330 330 330 327 322 326 329 326 323 324 324 324 325 325 324 322 321 320
320 317 317 317 315 316 315 312 311 309 310 314 316 316 316 316 315 313 307 305 308 310 310 312 312 313 314 314 314 314 314 315 314 314 314 314 314 314 314 314 314 313 313 314 314 315 315 316 316 315 315 316 315 316 315 315 315 315 315 315 316 316 316 317 318 319 320 321 322 323 324 322 321 327 333 333 331 327 327 330 329 329 325 321 325 328 325 324 324 323 323 324 325 323 322 322 320
315 320 325 322 317 318 316 312 312 312 309 310 313 314 321 323 322 321 311 304 306 308 309 311 312 312 313 313 313 314 314 314 314 314 314 314 314 314 314 314 314 314 313 313 313 314 315 315 316 316 315 316 316 316 316 315 315 315 315 315 316 316 316 317 318 318 319 318 319 321 322 322 321 324 326 329 327 323 322 325 328 328 324 322 324 324 323 324 324 322 321 323 323 322 322 322 320
313 319 326 324 321 319 316 314 316 316 312 309 309 314 327 330 327 325 317 312 312 308 306 310 311 311 311 312 313 313 313 313 314 314 314 314 314 313 314 314 314 314 313 313 313 313 314 314 315 315 315 315 315 315 316 315 315 315 315 316 316 316 316 317 317 317 317 317 318 319 321 323 322 321 322 324 327 326 322 322 326 326 323 324 327 327 325 324 324 324 324 324 323 321 321 321 320
314 314 317 319 322 322 320 317 316 318 314 308 308 315 322 324 324 324 318 317 318 312 306 307 310 312 312 312 312 312 313 313 313 314 314 313 314 314 314 314 314 314 314 314 313 313 313 314 314 315 315 315 315 315 315 315 315 315 315 316 316 316 316 316 317 317 318 318 320 321 322 323 324 324 324 326 328 328 325 325 327 327 326 325 324 326 328 327 327 325 323 324 324 322 321 320 320
315 312 313 319 323 323 323 320 318 318 312 310 315 317 315 317 319 318 314 316 319 318 313 309 310 313 313 313 313 313 313 314 313 313 313 313 314 314 314 314 314 314 314 314 314 314 314 314 314 314 314 315 315 315 315 315 315 315 316 316 316 316 316 317 317 317 319 319 320 322 323 324 325 325 326 326 326 325 324 326 328 328 330 327 322 325 328 328 327 325 322 322 321 321 321 321 321
315 309 311 316 319 322 324 324 323 316 310 315 319 313 312 318 321 318 313 314 317 320 318 313 311 313 314 314 313 313 313 313 313 313 313 313 313 314 314 315 315 315 315 314 314 314 314 314 314 314 315 315 315 315 315 316 316 315 316 316 316 316 316 316 317 317 318 318 319 320 321 322 323 324 325 325 324 324 323 322 323 323 325 325 322 323 324 323 324 324 323 321 319 321 322 322 322
310 305 310 313 315 319 320 321 322 316 313 320 318 309 311 317 324 322 313 312 318 319 318 313 310 312 313 314 314 313 313 313 313 313 313 314 314 315 315 315 316 316 315 315 315 315 315 315 315 315 316 316 316 316 316 316 316 316 316 316 316 316 316 316 316 316 316 317 317 318 319 319 320 321 322 323 323 323 323 322 321 321 322 324 324 324 324 324 324 323 322 322 323 323 322 321 321
306 310 315 314 318 321 319 320 318 314 318 322 313 309 310 311 321 325 314 313 317 317 316 313 311 312 313 314 315 315 315 315 315 314 314 315 315 315 316 316 316 316 316 316 316 316 316 316 316 316 316 316 316 316 316 316 316 316 316 316 316 316 316 316 315 315 315 315 316 316 316 317 318 319 320 321 322 322 322 322 322 322 324 325 326 326 325 324 322 320 321 321 319 319 320 319 319
309 321 320 315 320 321 321 323 316 313 323 320 310 308 310 309 318 320 314 316 315 312 314 316 313 313 313 314 315 315 315 315 315 315 315 315 315 315 316 316 316 316 316 316 316 316 316 316 316 316 316 316 316 316 316 316 316 316 316 316 316 315 315 315 315 315 314 314 314 314 315 315 317 318 319 319 320 320 321 321 321 321 321 321 321 321 320 319 319 321 322 320 316 317 318 318 318
314 318 318 318 321 317 321 326 317 315 320 312 306 308 309 310 316 314 314 317 314 308 309 312 311 311 313 314 314 314 314 315 314 315 315 314 315 315 315 316 316 316 316 316 316 316 316 316 316 316 316 316 316 316 316 316 316 316 316 316 316 316 315 315 315 315 315 314 314 314 313 314 314 315 316 316 317 317 318 318 318 317 317 317 316 316 316 315 317 320 321 320 319 319 320 319 319
313 314 317 321 320 314 316 319 312 313 316 309 305 309 311 314 314 313 314 312 309 306 307 309 310 311 313 313 313 314 314 315 314 314 315 314 315 314 315 315 316 316 316 316 316 316 316 316 316 316 316 316 316 315 315 316 316 316 316 316 316 316 316 316 316 315 315 315 314 314 313 313 313 313 313 314 314 314 315 315 315 314 314 314 313 313 313 313 314 314 315 316 317 318 318 318 318
312 314 316 318 323 322 319 319 318 318 317 310 306 310 319 318 311 311 311 306 306 308 308 309 309 311 313 312 313 314 314 315 314 314 314 314 315 315 315 315 315 315 316 315 315 316 316 315 316 316 316 316 316 316 316 315 315 315 315 315 315 316 316 316 316 316 315 315 314 314 314 314 313 313 313 313 313 313 313 313 313 313 312 312 312 312 312 312 312 312 312 312 312 312 313 313 313
312 312 312 314 320 322 315 312 316 315 312 311 310 313 320 316 309 309 306 304 306 307 307 309 310 311 312 312 313 313 314 315 314 315 315 315 315 315 315 315 315 316 315 316 316 316 316 316 316 316 316 316 316 316 316 316 316 316 315 315 315 315 315 315 315 315 315 315 315 315 315 314 314 313 313 313 313 312 312 312 312 312 312 312 312 311 311 311 311 311 311 311 310 310 310 310 310
312 310 313 315 313 317 313 306 305 308 310 313 312 314 316 312 311 315 312 309 309 307 307 308 310 312 312 312 312 311 312 313 314 315 314 315 315 315 315 315 315 316 315 316 316 316 317 316 316 317 316 316 317 316 316 316 316 316 316 316 316 315 315 315 315 315 315 315 315 315 315 314 314 313 313 313 312 312 312 312 312 312 312 312 312 311 311 311 311 311 310 310 310 310 310 310 310
314 316 314 310 307 313 316 311 312 312 313 316 313 312 315 313 313 318 316 312 313 312 309 307 308 312 311 311 311 310 312 313 314 314 314 316 316 315 316 315 315 316 315 316 316 316 316 316 316 316 316 316 316 316 317 316 317 317 317 316 316 316 316 315 315 315 315 315 315 315 314 314 314 313 313 313 313 312 312 312 312 312 312 312 312 311 311 311 310 310 310 310 310 309 309 309 309
312 315 310 309 314 316 313 312 317 315 312 319 318 310 309 310 315 320 315 313 317 316 312 309 309 311 310 311 311 311 311 312 313 314 315 316 315 315 316 315 315 316 315 316 316 316 316 316 316 316 316 316 316 316 316 316 316 316 316 317 317 317 316 316 316 315 315 315 315 314 314 314 314 313 313 313 313 313 313 312 312 312 312 312 312 312 312 311 311 311 311 311 310 310 309 309 309
307 308 306 312 321 320 313 312 316 314 311 317 320 316 314 313 316 320 314 315 322 319 316 313 310 311 311 311 312 312 312 313 314 315 315 315 315 315 315 315 316 315 315 316 315 315 315 315 315 315 315 315 315 315 315 315 315 316 316 317 316 317 316 316 316 316 316 316 315 315 315 314 314 314 314 313 313 313 313 313 313 313 313 313 313 313 313 313 313 313 313 312 312 311 310 310 309
309 310 309 312 314 313 313 312 312 316 317 317 316 317 324 320 313 315 314 316 319 316 314 311 307 310 312 311 314 315 313 315 315 315 315 315 315 315 315 315 315 315 315 315 315 315 315 314 315 315 315 315 315 315 315 315 316 316 316 316 316 316 316 317 316 316 316 316 315 315 314 314 314 314 314 314 314 313 313 313 313 313 313 314 314 314 314 314 314 314 314 314 313 312 312 311 310
310 311 311 313 313 312 314 312 310 311 313 316 315 313 321 322 313 313 313 310 308 305 305 306 306 310 312 313 315 315 314 315 314 314 315 314 315 315 315 315 315 315 315 315 315 314 314 314 314 314 315 315 315 315 315 315 316 316 316 316 316 316 316 316 316 316 316 315 315 314 314 314 314 314 314 314 314 314 313 313 313 313 313 314 314 314 314 314 314 314 314 314 314 313 313 312 311
Wind_Speed
2 3 4 5 4 3 3 3 2 3 3 2 1 1 2 1 1 2 2 2 2 4 7 5 13 19 8 2 5 2 4 5 3 2 3 10 18 20 17 15 15 15 15 15 16 16 16 14 13 12 10 9 9 9 10 12 14 15 15 14 13 13 14 14 16 17 16 15 13 10 10 12 15 14 14 15 16 17 17 17 19 18 16 16 15 16 17 16 16 17 17 16 16 17 17 17 17
2 5 5 6 4 1 1 4 2 2 4 1 2 2 2 1 1 4 6 4 2 5 7 10 17 17 6 1 5 3 4 4 6 8 11 20 23 20 18 16 16 15 14 15 16 16 15 14 12 11 9 9 9 9 10 12 14 14 14 14 14 13 13 14 15 17 16 15 13 10 9 12 15 14 14 15 16 16 17 17 18 17 16 16 15 17 18 16 16 17 16 16 16 17 18 18 18
3 6 6 5 3 3 3 4 1 1 3 1 3 2 1 1 3 5 6 3 6 11 12 14 14 10 4 2 3 1 3 6 10 16 19 25 25 22 19 17 16 15 14 15 15 15 14 13 12 10 9 8 8 9 10 12 13 14 14 14 14 13 13 14 16 17 16 15 14 10 7 9 12 13 13 14 14 15 16 17 17 16 16 17 16 17 17 17 17 17 17 17 16 17 18 18 17
5 6 6 4 4 4 4 3 1 3 2 2 2 3 2 4 5 4 4 7 14 15 12 12 8 5 4 1 2 1 4 8 12 19 24 26 24 22 21 19 17 16 15 15 15 14 14 13 11 10 9 8 8 9 10 11 13 13 13 13 14 14 13 14 15 17 17 16 14 10 6 7 9 11 11 12 13 14 15 16 16 16 15 16 16 16 17 18 18 17 17 17 17 17 17 17 16
6 6 5 3 2 2 3 2 2 3 3 3 1 3 4 5 5 3 7 14 15 10 7 8 4 4 4 2 3 1 4 9 14 21 26 26 23 22 21 20 19 17 17 16 15 15 14 13 11 10 8 7 7 8 9 10 12 12 13 13 13 14 13 13 15 17 17 15 13 9 5 5 7 9 9 10 12 14 14 15 16 16 15 15 16 17 18 18 18 17 17 17 17 17 16 16 15
7 7 5 3 4 3 3 2 1 1 3 4 2 4 5 6 7 9 12 13 8 3 4 5 3 4 3 2 3 4 5 8 15 21 26 26 23 22 21 21 20 18 18 17 16 15 15 13 12 10 8 7 6 7 8 9 10 11 12 12 12 13 13 14 15 18 16 13 11 8 6 5 6 8 9 9 10 13 13 15 15 15 15 16 17 17 17 18 18 17 17 17 16 16 15 15 14
7 6 4 4 5 3 3 2 3 2 2 3 1 3 5 8 12 14 12 9 3 2 3 4 5 5 3 3 4 5 7 9 16 22 24 25 24 22 21 21 20 19 18 17 16 15 14 13 12 10 8 6 5 6 7 8 9 10 11 12 12 12 13 14 14 15 14 12 9 7 7 7 8 9 10 10 10 12 13 14 14 14 15 16 16 17 17 18 18 18 17 17 16 15 14 14 14
7 4 3 4 3 4 3 2 3 1 0 2 3 3 5 13 18 15 9 6 3 4 5 6 6 4 2 3 4 5 9 13 18 23 24 24 24 22 21 21 20 19 18 17 16 15 14 13 12 10 9 6 5 5 6 7 7 9 10 11 11 11 12 13 13 13 13 11 10 9 8 9 9 9 10 10 10 11 12 13 13 14 16 16 16 17 18 18 18 18 18 17 16 15 14 13 13
7 3 3 4 2 2 2 1 1 2 2 3 3 4 5 15 19 14 9 4 3 5 6 8 5 1 3 4 5 7 11 16 20 23 24 23 23 22 21 20 20 19 18 17 16 16 15 13 12 11 9 7 6 5 6 7 7 8 9 10 10 10 11 12 12 12 12 12 11 11 9 9 9 9 10 10 10 11 13 13 13 14 15 16 17 18 18 18 18 18 18 17 16 15 14 14 13
5 3 3 3 2 2 2 1 1 1 3 4 4 3 8 15 16 12 8 3 4 4 7 10 2 1 5 4 5 8 12 17 22 23 23 23 22 21 20 19 18 18 17 17 16 15 15 14 12 11 9 8 7 6 6 6 6 7 8 9 10 10 10 11 11 11 12 12 11 11 9 9 10 10 9 10 10 11 13 15 15 15 16 16 17 17 18 18 18 18 18 17 16 15 14 13 13
4 3 4 4 3 2 1 3 3 3 3 4 3 3 10 15 13 9 6 3 4 4 8 10 2 5 7 3 6 9 14 19 21 23 23 23 21 21 20 20 18 16 16 16 16 15 15 14 13 12 10 9 8 7 6 6 6 6 7 8 9 9 9 9 10 10 11 11 10 10 10 10 10 10 9 10 10 10 12 14 15 15 16 16 17 17 17 18 18 18 18 17 16 15 14 13 12
2 2 3 3 2 2 2 2 3 4 4 2 2 5 10 14 11 7 6 4 6 5 8 9 2 6 5 1 6 9 16 20 21 21 22 23 21 21 20 19 19 17 15 14 15 15 15 15 14 13 12 10 9 7 6 6 5 6 6 7 8 9 9 8 8 9 9 10 10 10 10 10 10 10 10 10 10 10 11 13 14 14 15 15 16 16 16 17 17 17 17 16 16 16 14 13 12
3 2 4 3 2 1 2 3 2 4 3 1 3 7 12 13 9 8 8 5 7 5 6 9 3 5 3 1 6 10 17 20 22 21 21 22 21 20 20 19 19 18 17 15 15 15 15 15 15 14 13 11 10 8 6 6 5 5 5 5 7 7 8 8 8 8 8 9 9 10 10 11 10 10 10 10 10 10 11 13 13 13 13 14 14 15 15 15 15 15 15 16 16 16 14 12 11
5 5 4 3 1 1 3 2 1 0 2 3 3 10 13 10 6 8 9 5 8 7 6 10 6 4 3 3 6 13 18 20 22 21 20 22 21 20 20 20 19 19 18 16 15 15 15 15 15 14 13 12 11 9 7 6 6 5 5 4 5 6 6 7 7 7 7 7 8 9 10 10 10 10 10 10 10 10 11 12 12 11 12 12 12 13 13 13 13 14 14 15 15 15 14 12 10
7 6 5 3 2 1 3 1 1 4 3 3 5 13 14 8 6 7 9 6 7 8 6 9 9 3 4 4 5 14 19 19 22 20 20 21 21 21 20 21 20 19 18 17 17 15 15 15 15 14 13 12 12 11 9 7 6 5 5 4 4 4 5 5 6 6 6 6 6 7 8 9 9 9 10 10 9 10 11 11 11 11 11 11 11 11 11 11 11 12 13 14 14 14 13 11 10
8 6 5 3 2 1 3 1 2 3 4 4 7 12 11 7 6 6 8 7 6 9 8 8 11 4 3 5 3 13 19 18 23 21 20 22 22 22 21 21 21 20 19 18 18 16 15 15 14 14 13 12 11 11 10 8 7 6 5 5 4 4 4 4 4 5 5 5 5 6 7 7 8 8 9 9 9 9 9 10 9 10 10 10 9 9 9 9 9 10 11 12 12 12 12 11 10
9 5 5 2 2 2 4 4 4 3 4 4 8 13 9 4 6 5 7 8 6 10 10 7 11 8 4 5 2 12 19 18 23 22 22 23 23 23 22 23 22 22 21 20 19 18 17 15 14 14 13 12 11 11 11 10 8 7 6 5 5 4 4 3 3 3 3 4 4 4 5 5 6 6 7 7 7 7 8 8 8 8 8 8 8 8 7 7 8 8 9 10 10 10 10 10 10
6 3 3 2 3 3 6 7 7 4 2 6 11 15 11 4 7 8 6 7 6 9 13 9 11 11 8 6 3 11 18 19 23 23 24 24 24 25 25 24 24 23 22 22 21 19 18 16 15 14 13 12 12 11 11 11 10 8 7 7 6 5 5 3 3 2 2 2 2 2 3 3 4 4 5 5 6 6 6 7 7 6 6 7 6 6 6 5 6 6 7 8 8 9 9 9 9
4 3 3 3 5 4 5 8 9 3 2 9 11 13 12 6 9 11 5 5 6 6 10 11 11 14 13 9 6 10 17 20 22 23 24 25 26 26 26 26 25 24 23 23 22 20 19 17 16 15 14 13 12 12 12 12 11 10 9 9 8 7 6 5 4 4 3 2 1 1 1 2 2 3 3 4 4 5 5 5 6 5 5 5 5 4 4 4 4 5 5 6 6 7 8 8 8
2 4 3 4 6 3 3 7 9 2 2 10 12 11 11 7 9 11 6 4 5 6 9 11 13 16 16 13 9 10 16 19 21 22 23 24 25 25 26 25 25 24 23 22 22 21 20 19 18 16 15 15 14 13 13 13 13 12 11 11 10 9 8 7 7 6 5 4 3 2 2 2 2 3 3 4 4 4 4 4 5 4 3 3 3 3 2 2 2 3 3 3 4 5 6 6 6
3 5 3 4 5 2 2 5 6 3 2 9 13 11 8 7 10 11 8 4 3 10 14 14 14 13 14 16 13 11 16 19 21 22 22 23 24 24 24 23 23 23 22 22 22 21 20 20 19 18 17 16 15 15 14 14 14 14 13 12 12 11 10 9 9 8 7 6 5 4 4 3 3 3 4 4 4 4 4 4 4 3 3 2 2 2 1 1 0 1 1 2 3 4 4 5 5
4 2 2 6 6 3 2 3 4 5 4 9 13 10 8 9 9 12 11 7 4 9 12 14 14 11 12 15 14 13 16 19 20 21 21 22 22 22 22 22 22 22 22 23 22 21 20 20 19 19 18 18 17 17 16 15 15 15 15 14 13 13 12 11 10 10 9 8 7 7 6 5 5 4 5 5 6 5 5 5 4 4 3 3 3 3 2 2 1 2 2 2 3 3 3 4 4
4 0 3 8 6 4 4 3 4 7 7 11 13 9 10 10 6 10 15 14 9 4 4 7 11 13 12 13 15 14 15 18 18 18 18 19 19 20 20 21 21 21 22 22 21 21 21 20 20 19 19 19 18 18 18 17 17 17 16 15 15 14 13 13 12 11 11 10 10 9 8 8 7 6 6 7 7 7 7 6 6 5 5 5 5 5 4 4 3 3 4 4 4 4 4 3 3
3 2 4 7 5 5 4 3 5 6 8 10 12 9 9 10 6 6 16 21 15 8 3 2 5 12 14 14 15 14 13 15 15 15 15 16 16 18 19 19 20 21 21 20 20 21 21 20 20 20 19 19 19 19 19 19 18 18 18 17 16 16 15 15 14 13 12 12 11 11 11 10 9 9 8 8 8 9 8 8 7 7 7 7 6 6 6 5 5 5 5 6 6 6 5 4 4
2 4 6 8 6 6 6 5 7 5 6 9 11 8 5 9 6 5 14 18 16 16 13 7 4 8 14 15 15 15 14 15 15 16 16 16 16 17 18 19 20 21 21 20 20 20 20 20 20 20 20 19 19 20 20 20 19 19 19 19 18 17 16 16 15 15 14 14 13 13 12 12 12 11 10 10 10 10 10 10 9 9 8 8 8 8 7 7 7 7 7 7 7 7 7 6 5
3 7 9 9 7 7 8 7 8 6 7 9 8 4 2 6 4 8 15 15 14 17 17 16 11 7 12 16 16 15 15 15 15 16 16 16 17 18 18 19 20 21 20 19 19 19 19 19 21 21 20 20 20 20 21 21 21 21 21 20 20 18 17 17 17 17 16 16 15 15 14 14 13 13 12 12 12 11 11 11 11 10 10 10 9 9 9 9 8 8 8 8 8 8 8 8 7
9 14 13 11 9 7 6 8 8 8 8 6 6 2 1 4 2 5 8 8 11 15 15 17 17 13 11 14 17 16 16 15 15 16 17 18 19 18 18 19 19 19 18 18 18 18 18 19 20 20 21 21 21 21 21 21 22 22 22 21 21 20 19 18 19 19 18 17 17 17 16 16 15 15 14 14 13 13 13 13 12 12 12 11 11 11 10 10 10 10 9 9 9 9 10 9 9
16 18 13 9 8 9 7 8 8 6 5 3 4 2 1 3 3 6 6 3 5 10 15 15 17 17 13 13 16 18 17 16 17 18 18 18 17 17 17 17 16 16 17 17 17 18 18 19 19 19 20 21 21 22 22 22 22 23 23 23 23 22 21 21 20 20 20 19 18 18 18 18 17 17 17 16 16 15 14 14 14 14 13 13 12 12 12 12 11 11 10 11 11 11 11 12 11
13 12 6 5 5 7 6 5 4 3 3 3 5 1 3 3 6 7 6 6 5 6 12 14 15 17 15 14 15 18 19 18 19 19 18 17 16 16 17 15 15 15 15 16 17 18 18 18 18 19 19 20 21 22 22 22 22 23 24 24 25 24 23 23 23 22 22 21 21 20 20 20 19 19 18 18 18 17 17 16 16 15 15 14 13 13 12 12 12 12 12 12 11 11 13 14 13
7 4 4 3 5 4 4 4 2 3 3 3 5 1 6 7 9 8 6 8 7 7 9 12 14 16 17 16 15 17 19 21 20 18 17 17 17 18 18 17 18 17 16 17 17 17 17 17 18 18 19 20 20 21 22 22 22 23 23 24 25 25 25 25 25 24 23 23 23 23 22 22 21 21 20 20 20 19 19 18 18 18 17 17 16 15 14 14 13 13 13 13 13 13 14 16 16
4 2 2 3 2 3 4 4 2 4 2 3 6 1 6 8 7 6 10 11 9 9 10 12 14 16 18 18 17 17 18 20 20 18 18 18 19 19 19 19 19 19 19 18 18 17 18 18 19 19 19 19 20 20 21 22 23 23 23 23 25 26 27 26 26 26 25 25 24 25 25 24 23 23 22 22 21 21 21 20 20 19 18 19 19 18 17 16 15 15 15 15 15 16 17 16 17
3 2 0 2 3 4 6 4 3 4 2 3 7 1 6 8 7 2 5 9 11 12 11 12 14 15 17 18 20 20 19 19 19 20 19 18 19 19 19 19 20 20 20 19 19 19 19 19 20 20 20 20 20 19 20 21 21 21 22 23 23 25 26 27 28 28 27 26 25 24 24 25 25 25 24 23 23 23 22 22 21 21 20 20 20 20 19 16 15 16 17 17 18 18 18 18 16
4 2 3 1 3 2 4 2 4 3 3 2 3 2 3 3 5 2 1 1 6 10 12 12 12 13 15 17 20 21 22 22 22 22 21 19 19 19 19 19 19 20 21 21 21 21 20 20 21 20 20 20 20 20 20 20 20 20 21 22 22 22 22 25 27 26 25 25 24 23 24 24 23 23 23 23 23 23 23 23 22 21 21 21 21 22 21 19 17 18 19 19 21 20 19 18 17
2 2 3 2 3 2 2 2 3 4 3 1 2 1 6 6 7 7 5 5 6 8 10 11 12 13 14 16 19 21 22 23 24 23 20 19 18 18 18 18 19 20 20 21 22 22 22 22 22 22 21 21 21 21 20 21 21 21 22 22 23 23 25 26 24 24 25 25 25 25 27 27 23 24 23 21 21 22 22 24 23 22 22 22 23 24 23 23 21 20 22 22 23 23 21 20 18
5 2 4 2 2 3 2 3 2 3 3 2 0 2 9 10 12 17 16 11 12 13 13 14 15 14 12 13 17 19 21 23 23 20 18 18 18 18 18 18 19 19 20 21 21 22 23 23 24 23 23 22 22 22 22 22 22 23 23 24 25 26 28 29 26 26 27 29 30 27 26 26 24 25 26 24 24 23 21 22 25 24 23 25 25 24 25 26 25 23 24 26 27 27 26 23 20
9 6 5 5 4 3 4 4 4 1 3 2 4 5 8 9 11 18 20 13 12 16 16 17 18 17 16 15 17 18 20 23 20 17 17 18 18 18 18 19 19 19 20 21 22 23 23 23 24 24 24 23 23 23 24 24 24 24 24 24 26 28 30 30 28 28 29 32 32 26 23 23 22 23 25 26 27 28 25 21 24 24 22 25 27 27 28 27 26 25 26 29 30 31 30 26 24
8 6 4 4 4 2 3 3 5 1 3 2 3 3 7 10 10 17 22 15 12 17 18 19 19 19 19 19 19 20 21 22 20 18 18 18 19 20 20 21 21 22 22 22 22 23 23 23 24 24 23 23 24 24 24 24 24 25 24 24 25 25 26 27 26 26 27 28 27 27 27 25 25 26 27 27 25 27 28 23 26 28 21 23 27 28 30 31 28 27 29 31 33 33 32 29 27
6 6 5 2 2 2 2 2 3 3 1 2 1 3 8 11 10 16 19 10 11 18 18 19 20 19 21 21 22 23 23 25 23 22 21 21 22 22 22 23 23 23 22 22 22 22 22 22 23 23 22 23 24 24 24 24 23 23 23 23 23 23 23 25 25 24 25 25 25 29 31 30 28 27 29 31 24 23 29 29 29 30 25 25 29 26 28 33 32 30 32 33 34 35 34 32 30
5 4 5 2 2 2 1 2 3 3 0 2 2 3 8 10 9 14 17 13 17 21 19 20 21 21 23 23 23 24 26 27 26 25 23 23 23 22 23 23 23 22 21 22 22 22 22 22 21 21 22 22 22 22 23 22 21 21 21 21 22 23 23 23 24 25 25 26 26 29 31 31 30 27 28 31 27 26 31 32 30 28 28 30 32 28 26 30 32 33 35 36 37 38 36 34 33
4 4 5 3 2 2 1 2 2 3 2 1 1 2 7 7 5 10 13 13 16 19 19 21 22 25 26 25 27 28 29 29 28 27 25 24 23 21 23 24 24 23 22 22 22 22 22 21 20 20 20 20 20 21 21 21 21 20 20 21 22 23 23 23 24 25 25 25 25 27 28 29 28 28 30 30 31 31 30 30 30 30 31 30 30 31 31 32 31 33 35 36 39 40 38 36 33
1 3 6 4 4 4 3 2 1 2 3 2 1 3 6 4 4 7 5 5 9 10 12 16 17 19 22 23 25 26 26 27 27 25 22 19 17 17 20 23 25 25 24 23 22 22 22 20 20 20 20 20 20 21 21 21 21 21 21 21 22 23 24 24 25 25 25 24 24 24 25 26 26 28 32 32 32 30 28 29 30 31 31 30 30 31 32 32 31 32 32 32 34 36 36 35 34
0 3 5 6 8 6 3 3 4 3 2 3 4 2 5 4 4 6 4 6 7 7 9 14 13 12 14 18 20 19 20 21 21 18 13 12 12 13 16 18 19 20 20 20 22 22 23 22 21 21 21 21 21 21 21 21 22 22 22 22 22 23 23 24 24 22 22 22 22 22 22 22 24 24 26 28 29 29 29 28 29 31 31 33 36 36 35 34 33 34 34 33 33 32 32 33 36
2 3 4 7 8 9 7 5 4 2 1 2 3 2 4 6 5 6 4 7 10 9 9 11 9 8 10 14 16 16 17 17 16 14 10 10 11 11 12 12 12 14 15 17 20 20 21 21 21 21 21 21 21 21 21 21 21 21 21 21 21 21 22 22 20 17 18 19 20 21 21 21 22 22 23 26 29 31 31 30 31 34 32 32 35 36 39 38 36 37 37 36 35 33 33 36 38
3 2 5 8 9 9 7 6 4 2 2 2 4 3 1 5 5 6 5 6 9 8 7 9 9 7 7 8 11 12 13 14 14 12 11 11 12 11 10 9 9 11 13 15 16 16 17 18 18 19 19 19 19 18 18 19 19 20 19 19 20 20 20 19 17 16 17 18 20 20 21 21 22 22 23 25 28 30 30 31 33 34 32 33 34 34 37 38 37 38 36 35 35 35 37 40 41
2 2 5 7 8 7 5 6 4 1 1 2 4 3 1 5 6 5 5 4 8 8 7 8 8 8 7 5 4 5 5 6 7 9 9 10 11 10 7 7 7 8 10 11 11 12 13 13 14 15 15 15 15 15 15 16 17 17 18 18 19 19 18 17 17 17 17 18 20 21 21 22 22 22 23 24 25 26 28 30 31 33 34 35 34 34 35 35 37 38 37 38 39 41 43 44 44
4 6 7 7 7 6 5 5 4 3 2 3 4 3 0 5 6 4 3 2 7 7 6 7 6 6 8 9 8 6 6 6 6 7 8 9 9 8 7 7 6 6 6 7 8 8 9 9 10 11 11 11 11 12 13 14 15 16 17 17 18 17 16 17 17 18 19 19 20 21 21 21 21 22 23 23 24 25 26 27 28 30 32 34 34 33 33 35 37 39 40 40 41 43 46 47 46
11 7 7 7 6 5 4 3 4 3 2 5 4 3 0 3 6 4 2 3 5 3 3 5 5 5 8 10 11 12 12 13 14 14 14 13 11 10 10 9 8 8 7 7 6 6 6 6 7 7 7 7 8 9 9 10 11 12 13 14 15 15 15 16 18 19 19 19 20 20 20 20 21 22 22 23 24 25 26 27 27 27 31 36 37 36 37 39 40 40 39 39 40 41 42 43 42
8 4 6 5 4 4 4 4 3 2 4 6 4 3 1 3 5 3 4 6 5 4 3 4 5 6 8 10 11 12 13 14 15 15 14 13 11 10 10 10 10 10 9 9 8 7 7 6 6 5 4 4 3 3 4 5 6 7 8 9 10 12 13 15 17 18 18 19 19 19 20 21 21 22 23 24 25 25 26 26 27 28 30 33 35 37 39 40 40 39 39 41 41 40 41 41 42
5 5 6 5 2 2 2 2 1 2 5 3 2 2 1 5 7 7 8 9 7 8 8 7 8 6 6 8 8 9 11 13 13 12 11 10 10 9 9 9 9 10 9 9 9 8 7 7 6 5 4 3 2 1 1 2 3 4 5 7 8 10 12 13 15 16 17 18 19 20 21 22 22 23 24 24 24 24 25 26 27 29 30 32 33 35 35 35 37 38 40 42 41 41 41 41 42
5 6 6 4 3 3 2 3 2 3 3 2 3 2 2 4 6 8 12 10 7 9 11 11 11 8 4 6 5 5 8 10 11 9 8 8 8 8 8 8 8 8 8 7 7 6 5 5 4 3 3 2 2 1 0 1 2 4 5 7 8 9 11 13 14 15 16 17 19 20 21 21 22 23 23 23 22 23 25 26 27 28 29 30 31 32 32 32 35 37 39 41 42 42 43 42 43
2 2 5 6 5 5 4 4 3 3 2 3 3 2 3 3 2 6 10 11 11 12 13 15 16 14 9 8 5 1 3 6 8 7 7 7 7 7 7 7 8 8 7 7 7 7 7 6 6 5 5 5 4 4 3 3 2 3 4 6 7 9 11 12 14 15 16 17 18 19 20 20 21 22 22 21 21 22 24 24 25 26 27 28 28 29 30 31 32 34 36 38 40 42 43 44 45
1 1 5 3 4 5 4 3 5 3 0 2 2 3 4 3 5 8 8 10 12 11 11 13 15 15 11 8 4 2 4 5 7 7 7 7 7 7 7 7 8 8 8 9 10 10 10 10 9 8 7 7 6 5 5 4 4 4 5 6 7 9 10 12 13 15 16 17 17 19 19 20 21 21 21 21 21 21 22 23 24 24 24 25 26 27 28 29 30 31 33 35 38 40 42 44 44
2 2 3 4 3 8 6 2 1 4 1 3 1 3 5 3 7 8 4 6 8 6 7 8 9 9 8 5 2 5 6 7 9 8 7 8 7 8 8 8 8 9 10 11 12 11 11 10 9 9 8 7 7 7 7 7 8 8 8 9 10 11 12 13 13 14 15 17 18 19 19 20 20 20 20 20 21 21 22 23 23 23 23 24 24 25 26 26 27 29 31 33 35 38 41 42 43
4 3 5 4 3 5 5 2 3 4 1 4 1 4 5 2 3 7 6 5 8 6 6 6 5 6 6 3 4 7 8 9 11 9 8 8 9 10 10 10 10 11 12 12 11 10 9 9 8 8 8 8 8 9 10 11 12 13 14 14 14 14 15 15 16 15 16 18 19 19 20 20 19 19 20 21 22 22 22 23 23 23 23 23 23 23 24 24 25 26 27 29 31 34 37 38 40
4 5 5 4 3 2 2 2 2 1 2 4 3 3 4 3 5 5 3 6 8 8 6 5 5 7 6 3 5 8 8 10 11 11 10 10 12 13 13 13 13 12 12 10 9 8 7 7 7 7 8 9 9 10 11 13 13 14 16 17 17 17 16 17 18 19 19 20 21 21 21 21 21 20 21 22 24 24 24 23 22 22 21 21 21 21 22 22 22 23 24 24 26 28 31 32 33
5 4 3 2 3 4 2 2 4 3 3 3 4 4 3 6 6 5 7 8 7 6 4 4 8 10 6 4 8 10 10 12 14 15 15 15 16 15 15 14 13 11 9 8 6 6 6 7 7 9 10 11 12 13 14 14 15 14 15 16 18 19 18 18 19 21 22 22 22 23 24 23 23 22 22 23 24 25 25 23 22 21 20 20 20 20 20 21 22 23 24 24 24 24 26 28 29
3 3 3 1 2 2 2 1 2 4 4 3 2 3 5 6 5 7 9 7 4 4 3 4 7 9 6 8 14 15 17 19 19 20 19 18 17 15 14 12 10 8 6 4 4 5 7 9 11 12 14 15 15 16 16 16 16 15 15 16 18 20 19 19 19 21 23 23 22 23 24 25 25 24 24 24 25 26 26 25 24 23 21 20 20 20 21 22 23 24 26 27 27 26 26 27 27
5 5 6 6 4 4 3 2 1 2 3 4 3 3 8 6 4 6 7 5 4 5 5 4 3 7 9 13 18 20 22 23 22 20 18 16 14 12 10 9 6 4 2 3 5 8 10 12 14 15 16 17 17 16 16 16 16 15 15 16 18 20 20 20 20 20 22 22 22 22 23 26 26 25 25 25 26 27 27 27 26 24 23 22 22 22 22 23 24 25 26 27 28 29 29 28 28
Wind_Direction
243 179 145 110 89 99 47 45 103 22 68 96 300 190 222 223 152 167 170 171 143 181 179 154 157 160 160 201 203 175 116 155 163 132 143 154 150 151 157 157 158 159 156 153 153 147 138 132 131 134 129 117 102 88 75 62 56 56 59 65 77 88 95 95 97 101 99 91 85 77 65 75 83 85 92 94 95 96 93 91 94 96 96 97 94 88 85 84 81 78 76 74 74 76 78 78 76
211 155 127 109 77 122 94 51 101 344 50 106 250 184 254 314 145 192 179 189 164 159 164 152 155 164 179 177 165 127 111 133 121 119 132 145 147 152 158 157 158 158 156 151 147 140 134 133 136 138 130 120 104 89 75 65 59 58 62 66 74 82 93 96 98 101 98 93 89 76 60 78 83 78 90 95 93 95 94 92 93 95 95 93 91 87 85 82 78 78 78 77 77 78 79 78 77
171 143 119 121 76 80 102 54 83 78 76 167 252 232 221 159 198 208 191 188 124 133 140 145 151 164 180 128 154 177 148 137 123 125 136 147 151 156 158 157 158 158 156 149 142 138 138 138 138 138 131 121 106 91 77 69 63 61 63 65 72 78 88 96 101 107 106 100 96 87 65 74 77 73 87 97 95 96 96 95 94 95 94 92 90 86 84 79 74 74 75 77 79 80 81 79 78
151 135 114 121 96 75 77 47 106 123 135 192 256 243 209 182 199 216 179 136 125 127 132 142 146 173 193 204 210 222 154 150 138 138 145 153 155 156 156 157 157 158 156 150 145 143 143 141 140 141 134 126 110 93 79 72 66 62 63 66 72 76 85 95 103 111 111 106 102 104 92 76 76 75 87 97 97 97 97 99 98 94 91 90 87 81 78 76 74 74 76 80 82 82 82 82 81
142 127 119 128 110 81 88 72 96 118 181 180 180 241 224 200 185 174 144 135 128 118 135 150 136 170 184 200 207 164 154 158 150 148 150 154 156 156 156 156 158 159 157 153 152 148 148 145 144 145 138 131 116 96 83 76 69 63 63 67 72 75 83 91 99 104 103 104 107 116 122 96 81 80 92 98 98 97 96 100 97 91 89 87 83 80 79 78 78 78 80 83 85 85 84 84 84
133 120 114 107 95 104 117 101 138 178 217 168 156 239 215 200 168 144 146 146 139 96 144 168 153 153 154 141 156 134 141 158 158 154 153 154 156 157 157 157 159 160 158 158 158 153 151 149 146 146 142 134 120 100 86 79 71 65 63 66 73 77 81 87 98 104 105 108 116 128 125 102 83 86 103 107 101 99 95 96 96 93 92 88 84 84 84 82 82 83 83 85 85 86 84 84 85
138 125 100 97 77 64 107 139 196 206 214 169 177 228 196 179 156 143 150 162 194 233 173 190 177 153 138 119 128 132 132 149 156 153 154 156 156 158 158 158 160 160 160 161 162 158 153 150 149 148 144 139 125 105 91 84 76 69 65 65 72 78 82 85 94 106 113 116 120 119 102 90 83 90 110 114 104 100 95 95 95 94 93 92 90 88 88 87 86 86 85 86 85 85 85 86 86
144 129 84 102 50 25 88 125 208 199 181 229 246 245 198 164 154 151 160 170 190 200 183 174 163 154 165 143 140 139 132 142 149 153 157 157 157 159 161 160 160 160 161 163 163 161 156 152 155 153 151 151 133 115 100 94 85 75 67 66 73 79 83 87 91 100 110 113 107 100 91 84 81 89 109 117 108 101 98 96 95 94 95 96 94 92 91 90 89 89 88 87 87 87 86 88 90
139 125 82 95 78 41 47 55 211 234 278 260 252 255 192 160 156 157 163 179 176 173 177 164 148 169 184 154 149 149 141 146 151 155 159 159 159 160 162 163 162 162 162 164 166 164 160 157 160 158 159 160 144 136 118 104 95 85 73 68 72 79 83 85 87 90 95 100 99 100 94 82 81 91 109 119 108 100 96 94 92 92 94 95 96 95 94 93 91 89 88 87 87 86 86 87 89
123 101 110 89 89 59 3 273 238 249 262 264 264 239 172 160 157 157 158 173 177 165 173 168 150 156 164 155 151 157 154 152 156 159 161 162 161 161 164 165 165 165 164 166 167 166 164 161 165 165 166 168 156 155 136 116 107 95 81 75 73 76 79 80 82 82 84 90 96 101 98 87 84 90 106 119 108 95 90 89 91 94 96 96 97 96 95 93 90 87 85 84 82 82 83 85 88
104 65 111 82 81 104 197 215 270 271 278 289 279 191 166 162 152 151 154 158 176 160 166 173 194 158 149 159 166 163 160 158 160 162 163 164 164 165 167 168 168 170 169 170 169 168 168 166 168 170 173 176 170 168 148 128 118 105 91 82 78 76 78 80 81 81 80 83 86 90 93 89 84 87 100 111 106 94 87 88 93 98 100 100 98 96 94 92 87 85 83 81 79 78 79 83 88
131 36 88 84 130 176 199 179 264 287 307 314 166 169 166 163 154 159 164 160 171 160 174 177 173 163 143 165 181 167 161 162 164 165 167 167 168 169 170 172 171 172 174 176 174 173 173 172 172 175 180 183 180 174 160 144 128 114 104 92 85 81 81 84 85 84 81 80 80 80 84 85 84 90 98 105 104 96 89 89 93 96 100 101 99 97 94 92 88 85 82 80 78 75 75 80 87
151 141 94 93 159 153 151 145 268 316 322 242 166 165 165 168 169 180 169 156 169 160 187 186 167 173 167 183 186 172 165 167 166 168 172 171 172 173 174 176 176 176 177 180 182 181 180 177 177 180 184 188 186 180 175 164 145 129 122 107 96 89 85 85 88 89 84 81 81 81 81 83 86 92 100 105 105 99 94 92 94 95 98 100 99 99 98 95 91 86 82 78 76 74 74 76 86
135 136 107 109 112 114 148 125 276 162 246 243 165 161 165 176 186 187 172 159 184 178 186 191 183 176 197 197 191 181 171 172 172 171 175 175 177 177 179 180 182 181 179 183 186 189 189 184 182 185 188 191 193 189 185 178 168 151 140 130 111 100 93 88 87 91 91 88 85 85 83 83 87 91 98 103 105 103 100 99 100 102 102 102 102 103 102 98 94 88 81 76 74 74 74 76 83
134 119 93 104 62 37 162 101 164 149 216 217 153 167 167 176 185 191 190 181 194 190 176 186 185 184 221 198 191 188 177 175 177 174 176 178 179 182 185 185 186 186 184 186 187 192 195 192 188 188 192 194 198 195 191 187 182 173 159 153 138 120 110 100 91 90 91 92 90 89 87 85 87 92 96 100 105 105 104 106 108 110 110 111 109 106 103 101 96 89 82 76 74 74 74 76 80
138 118 74 88 104 168 173 153 131 132 240 196 154 170 165 179 188 188 201 195 193 192 184 182 187 198 214 190 181 185 180 179 180 178 178 179 182 186 190 190 190 190 189 190 190 193 196 197 194 193 196 199 202 199 198 196 190 187 179 172 166 155 138 122 106 95 84 86 88 91 91 89 90 93 99 103 108 109 109 112 112 112 114 116 113 109 106 101 96 89 83 78 74 73 74 74 77
132 108 66 84 151 194 185 174 176 164 237 205 166 172 161 181 196 184 191 192 196 195 193 189 194 200 183 179 177 180 181 182 182 182 181 182 185 188 194 195 194 193 193 194 193 194 196 198 197 197 200 202 206 204 203 201 197 197 196 192 187 186 178 155 129 109 87 81 82 91 96 97 96 96 104 109 112 115 114 115 117 115 113 115 115 112 108 101 93 86 81 77 74 71 71 73 76
128 102 90 141 175 197 188 181 191 163 178 190 177 178 170 175 187 175 171 185 199 198 199 201 202 205 195 190 194 185 185 185 186 188 186 187 189 192 196 198 198 198 197 197 196 196 197 198 199 201 203 206 208 208 208 206 204 205 208 209 205 204 203 196 174 152 122 99 82 98 109 114 115 113 119 122 124 125 124 121 120 119 117 119 122 121 111 101 92 85 78 74 70 65 64 66 71
111 101 110 200 198 199 192 182 186 148 109 171 171 180 179 182 179 174 182 189 185 192 205 209 212 214 211 208 206 197 193 190 191 194 194 193 194 196 199 200 202 202 202 201 200 199 199 199 202 204 206 209 211 212 213 212 211 211 215 218 216 215 216 216 208 194 184 178 166 146 148 156 156 152 152 152 149 146 140 132 129 130 126 126 129 124 112 101 93 85 78 70 66 62 59 60 62
102 111 120 236 210 196 194 186 190 182 96 162 166 177 182 187 180 181 196 179 182 206 209 210 217 219 215 213 212 205 199 196 196 198 201 200 200 202 202 203 204 204 206 206 205 203 202 202 204 207 209 212 214 216 217 217 217 216 219 221 222 222 221 223 222 218 211 210 218 223 227 216 204 196 196 194 185 176 166 154 148 148 135 128 124 112 104 99 90 82 74 63 58 56 55 54 58
139 126 158 211 178 126 171 185 198 206 153 167 164 164 185 196 186 189 183 151 237 237 224 221 224 218 211 210 213 209 203 201 200 202 205 205 206 206 207 207 207 208 209 210 210 208 206 206 207 208 210 213 215 217 218 221 222 221 223 224 226 226 227 228 227 228 227 226 229 234 243 240 235 228 230 230 222 211 201 191 174 170 165 152 150 152 165 168 91 57 36 26 28 35 41 40 46
129 108 143 141 137 113 146 165 189 194 162 164 161 158 186 186 191 199 187 181 229 241 236 234 235 227 216 212 212 210 205 204 204 205 208 209 210 211 211 211 211 212 212 214 213 212 211 210 211 211 212 215 216 219 220 222 224 226 228 228 230 230 231 232 231 232 233 235 236 240 247 251 251 247 249 248 244 239 228 220 208 199 200 195 197 208 219 230 255 274 295 317 336 352 10 14 15
141 325 130 123 117 105 125 155 177 186 170 167 168 171 182 173 196 211 207 217 219 231 253 239 238 231 225 220 216 214 207 205 207 208 209 210 212 213 213 212 213 214 216 217 216 216 216 215 215 215 215 217 218 220 223 224 226 228 233 234 234 234 235 235 235 235 236 238 240 243 247 250 255 255 255 256 255 250 243 235 229 220 218 218 220 226 234 238 252 266 276 288 301 314 328 343 347
136 138 159 130 103 92 104 146 152 169 180 178 174 175 180 180 197 219 224 230 226 228 239 227 238 225 222 223 222 223 217 212 212 212 213 215 215 215 215 216 216 217 219 220 220 221 221 220 220 219 219 220 221 223 225 227 228 230 234 237 237 235 236 237 238 238 239 240 242 245 248 249 252 255 256 257 257 256 252 247 240 234 228 228 230 233 237 240 248 257 267 276 284 292 302 313 320
102 134 158 133 106 99 88 112 132 139 162 167 168 171 189 196 203 240 239 237 231 236 240 241 246 221 220 222 224 225 222 220 218 217 218 218 219 218 217 218 218 219 221 220 221 223 224 225 224 224 223 222 224 226 228 230 231 233 234 238 240 238 237 238 238 239 240 242 243 245 249 253 254 255 257 258 258 258 257 254 251 245 237 235 237 238 240 243 248 255 261 267 274 282 289 297 300
166 136 140 129 106 106 96 102 118 119 138 154 161 158 187 193 220 263 254 252 242 239 242 241 241 234 223 221 224 224 224 223 221 221 220 218 220 220 217 216 218 219 221 222 223 224 225 227 226 226 226 226 227 228 230 231 233 235 236 239 241 241 240 239 238 239 240 242 244 246 249 253 255 256 256 258 259 259 258 258 257 253 246 242 244 245 244 245 249 253 258 262 269 274 280 285 286
146 124 112 106 99 103 104 107 110 114 127 151 168 156 132 160 199 260 251 262 249 238 239 238 236 238 233 226 225 225 227 227 225 224 223 222 221 220 218 217 219 220 222 223 224 225 225 227 227 227 228 228 229 230 231 233 234 236 238 240 242 244 243 242 240 240 241 241 242 245 248 251 254 256 256 256 256 257 257 256 257 257 253 249 248 248 248 250 251 255 258 260 262 266 271 274 275
135 125 98 70 86 91 86 104 109 109 111 131 152 145 49 123 198 239 229 266 273 237 231 234 233 234 236 233 228 226 228 227 227 227 225 225 222 222 221 219 222 222 224 226 226 229 228 227 227 227 228 230 231 233 233 234 236 237 238 241 242 244 244 245 243 241 242 243 243 244 246 248 251 254 255 257 257 256 255 255 255 255 254 253 252 252 251 252 253 257 262 263 263 264 267 268 269
127 125 102 15 42 63 46 70 98 104 101 110 110 83 293 215 223 239 238 243 261 239 226 230 232 232 233 234 231 227 228 227 226 227 226 228 228 230 229 227 231 231 232 233 233 233 233 232 231 230 230 231 233 236 237 238 238 238 239 241 244 245 245 245 245 244 242 241 242 243 245 246 248 251 254 255 256 255 254 253 254 255 256 255 253 253 256 258 258 259 263 266 270 272 272 269 267
116 96 100 52 30 19 9 28 83 113 106 127 117 269 276 259 244 243 249 234 232 238 230 230 230 230 231 232 234 230 228 229 229 229 230 231 232 234 235 234 236 238 240 240 240 239 239 240 239 238 236 235 237 238 241 243 242 242 240 241 244 248 249 248 247 246 244 241 240 240 242 245 246 248 251 254 255 255 254 253 254 257 257 258 257 254 254 256 257 259 261 263 269 274 274 273 270
101 64 57 73 131 253 330 13 90 125 131 142 122 180 265 271 269 250 247 236 225 235 234 234 233 232 232 233 236 235 231 230 231 232 233 235 236 237 238 238 237 240 241 241 243 245 246 246 246 246 245 244 243 242 244 246 248 248 247 245 245 247 251 253 254 252 249 246 242 240 238 240 244 247 249 251 253 255 255 253 255 256 255 258 261 261 262 259 259 261 257 258 265 270 269 266 268
41 108 332 358 155 243 319 14 58 119 148 112 116 195 271 268 273 283 256 237 225 236 240 236 235 234 235 236 237 239 237 235 235 235 235 238 238 239 240 240 240 241 243 244 246 248 249 250 250 251 251 251 251 249 250 250 251 252 253 253 250 248 248 251 256 256 256 254 250 247 243 238 239 243 247 250 252 253 255 256 258 259 256 257 256 261 267 260 258 262 258 260 265 268 268 259 256
356 105 166 235 159 239 312 12 18 69 128 79 105 207 270 281 265 220 88 248 227 238 246 243 242 247 245 242 242 241 241 239 239 239 239 240 239 240 241 242 243 244 246 247 248 250 251 252 254 255 255 256 258 258 257 257 258 259 261 263 262 259 256 255 257 257 260 263 260 258 257 250 242 243 248 250 252 251 254 258 260 261 260 258 256 257 260 251 251 261 262 265 264 261 263 257 250
283 45 114 188 174 176 270 278 344 43 120 172 54 219 244 269 273 247 250 301 285 260 256 255 256 258 252 245 243 242 241 240 239 239 239 241 241 240 240 241 243 244 245 247 248 250 251 253 255 256 257 258 259 260 260 259 259 259 261 263 264 265 264 264 262 259 263 266 262 257 256 255 253 255 255 253 255 253 255 260 260 261 259 257 260 257 254 252 252 259 261 261 260 256 253 251 251
174 161 132 164 191 193 241 234 279 29 99 176 82 263 259 273 282 272 272 284 283 275 272 271 269 264 256 247 243 241 242 241 238 238 240 241 241 240 240 240 241 243 244 245 247 249 250 251 253 255 256 256 257 259 260 259 258 255 253 252 251 251 254 259 258 255 257 258 258 256 252 251 251 254 253 253 257 253 253 261 258 257 256 257 265 261 254 255 254 257 259 256 256 255 249 246 249
158 163 141 150 168 224 247 245 280 10 115 199 222 235 269 279 284 281 280 283 279 276 275 272 269 266 258 249 246 243 242 243 240 238 237 236 237 237 238 238 239 240 242 244 246 247 248 249 250 252 252 253 255 255 255 255 256 255 253 249 246 245 248 253 252 245 245 249 257 263 261 258 256 254 255 257 262 254 248 261 259 249 252 259 264 263 258 257 257 261 264 259 256 253 248 245 247
132 126 108 138 151 205 244 261 307 10 144 236 234 244 275 271 273 277 279 286 278 270 269 266 264 261 258 253 249 246 244 246 245 240 236 235 238 240 241 242 242 242 241 242 244 245 247 248 249 249 250 251 252 252 252 252 253 255 256 256 255 255 255 258 258 251 248 251 259 267 266 266 263 259 261 262 267 261 249 258 261 246 247 266 270 269 262 254 254 263 266 262 257 254 251 248 249
100 126 130 135 160 190 228 243 318 1 171 249 354 314 273 264 266 270 274 277 262 260 260 261 263 259 258 256 253 251 249 250 249 247 246 246 248 249 249 248 247 246 244 242 243 245 248 248 248 248 248 249 249 251 253 253 254 256 260 264 265 265 262 261 264 263 262 258 253 253 256 261 259 258 260 255 259 266 255 253 256 247 248 267 272 270 263 255 255 263 268 265 260 255 252 250 250
86 112 132 149 202 207 287 297 336 14 120 263 355 325 273 264 261 264 264 254 256 262 257 259 262 260 258 257 256 255 253 253 252 251 252 253 256 257 256 253 250 248 244 241 241 243 245 246 247 246 246 247 247 250 252 254 256 257 259 262 262 263 261 258 258 258 259 255 248 245 248 253 255 259 261 253 255 267 262 253 250 251 259 267 268 266 265 262 260 265 269 269 263 256 252 249 248
90 112 131 168 214 162 185 242 321 18 59 284 267 279 281 282 284 274 264 254 259 265 260 258 257 257 258 258 259 260 258 258 258 256 257 258 260 260 257 253 249 245 240 237 237 239 242 243 244 244 243 244 245 247 249 253 256 256 256 257 257 258 257 255 253 251 249 247 245 243 247 250 249 253 255 252 257 264 262 256 252 256 264 267 266 264 264 265 266 269 270 270 266 257 254 252 249
48 148 143 162 186 172 186 178 81 14 23 34 37 311 294 311 319 286 285 291 272 270 269 262 255 256 260 260 261 263 264 264 264 262 260 257 253 251 252 249 244 241 237 236 236 237 238 238 237 238 238 239 240 242 246 250 253 255 256 256 255 254 255 254 251 252 252 250 249 247 247 249 245 245 246 248 257 260 256 255 255 261 267 267 267 266 265 264 267 270 269 272 271 265 261 258 257
246 211 175 170 167 153 140 116 86 49 3 4 27 339 287 317 310 268 309 343 301 293 287 273 270 269 266 266 266 266 265 265 267 267 259 246 239 240 246 242 235 232 228 229 231 232 232 231 230 230 231 234 237 240 244 248 251 253 255 256 257 258 259 259 259 262 263 262 264 262 258 256 253 250 249 252 258 261 259 258 259 263 269 270 268 267 265 261 263 267 268 270 269 267 264 260 264
170 225 163 141 131 126 134 131 101 106 198 339 42 144 258 314 304 270 315 331 302 300 291 288 304 302 281 275 271 268 265 264 268 268 260 246 228 220 226 221 217 217 217 223 226 228 228 227 226 227 229 232 235 238 240 244 247 250 254 256 259 262 263 266 270 271 269 266 265 265 262 261 262 259 256 255 255 257 260 263 263 261 265 272 267 265 265 263 265 270 271 271 268 265 263 264 270
183 240 122 123 120 130 142 117 99 176 210 334 16 103 219 297 276 274 329 327 302 305 303 314 338 338 315 294 280 276 271 269 267 257 249 235 208 198 207 211 214 217 221 227 228 228 229 227 226 226 229 231 232 234 236 239 243 247 251 254 257 260 263 268 271 267 263 262 258 257 257 256 258 258 255 252 251 252 253 256 258 257 262 269 266 265 268 266 269 270 271 275 273 267 265 269 273
237 211 115 120 117 119 116 94 91 25 25 297 329 38 159 266 275 301 354 331 291 296 297 306 332 354 6 4 325 300 283 269 254 233 225 213 196 192 195 199 207 214 220 225 225 228 227 225 225 225 226 228 230 232 235 236 241 245 248 252 256 260 266 268 268 264 260 258 256 254 253 253 253 254 254 253 253 253 250 249 250 251 256 261 262 265 267 267 269 270 272 276 272 268 267 266 265
171 148 98 83 76 78 77 83 95 45 39 235 280 7 202 265 285 307 12 305 261 274 279 279 310 359 29 40 52 67 84 98 122 146 150 150 153 156 153 157 167 179 193 202 209 214 217 219 220 223 226 230 233 235 238 240 243 248 252 258 263 267 271 270 268 266 263 260 259 257 256 256 255 255 255 255 255 255 254 252 251 252 257 260 262 264 264 265 267 269 273 275 272 269 267 263 262
140 122 80 69 44 40 51 54 79 66 316 251 263 317 320 270 281 257 204 221 218 231 288 286 311 15 40 47 61 75 87 96 104 111 115 117 120 125 129 133 137 143 153 162 172 181 187 197 203 210 218 223 231 235 240 247 251 258 264 269 273 274 274 272 270 269 268 265 264 262 261 259 258 257 256 256 255 255 255 257 256 254 255 256 257 259 261 264 267 270 271 273 273 271 269 268 268
119 94 95 89 18 14 27 3 40 101 250 262 277 304 187 215 263 251 238 254 223 201 235 268 298 353 35 52 65 74 86 95 101 105 107 108 112 116 118 120 123 124 124 124 124 129 130 134 142 146 155 169 190 214 235 255 265 274 278 278 280 278 275 273 273 273 272 271 270 268 265 261 258 256 255 254 254 255 257 258 258 256 254 254 254 257 259 261 264 266 267 269 272 271 269 271 270
82 105 115 100 24 17 2 317 340 205 239 271 291 284 216 230 252 258 261 264 241 226 234 253 284 316 21 45 56 71 88 96 99 102 105 109 112 114 114 113 113 112 111 111 110 109 109 108 110 112 113 121 131 152 230 274 287 289 291 292 289 286 284 282 281 280 278 275 273 269 265 263 260 257 255 255 255 257 257 257 257 256 255 255 255 256 257 257 257 258 260 265 268 267 266 267 267
132 138 134 133 118 100 240 260 288 258 255 292 285 266 261 267 266 249 247 253 244 243 252 266 277 284 328 360 19 64 91 101 104 105 109 117 118 116 116 113 112 114 113 112 110 104 103 101 99 104 108 111 114 98 23 327 318 308 306 306 301 297 296 294 292 288 283 278 274 271 269 266 263 260 258 257 256 255 255 254 255 254 254 255 255 256 256 256 256 256 257 259 260 262 263 264 265
168 163 126 146 155 147 196 209 196 230 265 304 293 267 200 211 277 242 243 265 269 257 259 262 262 262 278 309 328 28 108 108 114 119 123 129 131 126 122 118 118 119 115 111 108 105 105 105 103 102 102 97 91 83 69 53 17 341 324 315 307 302 301 299 296 292 286 282 278 275 273 269 266 264 260 257 254 252 252 253 254 255 255 256 257 257 258 258 259 259 261 262 262 263 263 264 265
239 116 105 154 180 136 135 171 170 164 359 305 264 242 217 211 287 277 264 281 278 263 263 260 255 254 262 286 307 186 179 142 133 137 136 137 140 137 131 126 124 119 114 110 106 106 103 101 98 92 88 80 70 63 52 38 22 2 342 329 318 311 307 302 299 296 291 287 282 277 273 269 266 264 260 256 253 251 252 252 253 255 256 257 258 259 261 262 262 264 265 267 268 267 265 266 266
157 118 161 210 163 113 114 160 69 80 143 268 222 253 288 324 296 295 314 295 285 279 265 251 245 241 239 259 237 174 176 160 152 151 147 146 142 138 133 129 126 119 114 111 106 103 97 91 85 75 66 56 43 30 17 7 357 347 340 334 328 322 318 312 305 299 292 286 281 277 272 268 267 267 265 261 256 252 251 251 252 254 255 257 259 261 262 264 266 268 269 270 271 269 267 268 268
122 174 197 185 119 93 110 134 19 48 225 277 284 238 284 341 277 316 348 280 269 272 248 239 239 214 198 213 200 181 170 157 158 157 152 151 141 136 135 129 126 120 115 111 103 95 87 77 66 55 43 30 20 10 0 351 343 336 329 324 321 319 317 314 310 304 297 291 287 282 277 273 270 269 267 265 262 258 254 252 252 253 255 257 260 262 264 266 267 269 271 272 272 269 268 269 268
101 168 157 120 131 148 101 126 143 119 224 275 302 276 262 203 224 296 309 228 247 258 247 251 236 194 179 195 190 180 168 155 154 148 142 140 134 132 131 128 125 121 116 109 98 84 70 56 42 30 18 7 358 350 346 341 334 329 320 313 309 307 307 308 307 305 301 297 294 289 283 278 274 271 268 267 265 262 259 256 255 256 258 260 263 266 270 272 273 275 277 278 277 273 271 272 271
51 107 111 79 125 157 162 142 160 173 184 241 310 327 260 224 217 224 223 222 233 232 226 244 220 191 171 164 157 154 150 141 136 134 132 131 129 128 127 126 124 120 113 100 83 61 39 22 9 360 350 342 336 332 332 329 325 321 313 306 300 297 297 298 300 299 297 295 293 290 285 280 276 273 270 268 267 266 263 261 259 259 260 264 269 273 277 282 285 288 291 291 290 284 280 281 279
100 121 151 170 73 114 162 91 111 139 153 183 263 302 267 249 209 202 219 232 232 210 220 260 223 197 167 140 138 134 132 131 129 129 128 126 125 124 124 125 122 116 106 78 44 12 358 349 343 341 337 331 328 326 324 320 317 313 307 298 292 290 289 290 291 291 290 287 286 285 282 279 275 272 271 269 268 268 267 266 263 261 261 264 269 274 279 283 288 292 295 297 297 294 290 288 283
158 170 181 174 144 122 152 237 280 108 134 166 167 258 270 255 210 207 219 239 278 278 273 287 216 174 148 133 133 131 129 130 129 127 125 122 123 123 126 128 123 110 69 2 346 337 335 333 332 330 328 325 322 320 317 313 309 305 298 289 283 282 283 283 284 284 284 283 282 281 278 276 273 270 269 268 268 269 269 270 270 269 268 268 269 273 276 281 284 288 291 294 296 295 294 291 286